This demonstration page uses our WeatherBlox Daily Observations layout. Learn more.

Left ArrowRight Arrow

Hourly Observations for September 4, 2021

Temp ( °F °C ) Dew Point ( °F °C ) Humidity (%) Winds ( mph kmh ) Pressure ( in mb ) Visibility ( mi km ) Precip ( " mm )
12:59 am 00:59 Partly Cloudy 66 18.9 57 13.9 73 73 ESE 3 6 30.09 1019 10 16 0.00 0.00
1:59 am 01:59 Partly Cloudy 64 17.8 57 13.9 78 78 Calm 30.07 1018 10 16 0.00 0.00
2:59 am 02:59 Mostly Clear 66 18.9 59 15 78 78 SSE 3 6 30.06 1018 10 16 0.00 0.00
3:59 am 03:59 Clear 65 18.3 59 15 81 81 S 5 7 30.06 1018 10 16 0.00 0.00
4:59 am 04:59 Mostly Clear 64 17.8 59 15 84 84 Calm 30.06 1018 10 16 0.00 0.00
5:59 am 05:59 Partly Cloudy 63 17.2 59 15 87 87 Calm 30.07 1018 10 16 0.00 0.00
6:59 am 06:59 Mostly Cloudy 65 18.3 61 16.1 87 87 SW 3 6 30.08 1019 10 16 0.00 0.00
7:46 am 07:46 Mostly Cloudy 69 20.6 63 17.2 81 81 Calm 30.09 1019 10 16 0.00 0.00
7:59 am 07:59 Mostly Cloudy 70 21.1 63 17.2 79 79 W 3 6 30.09 1019 10 16 0.00 0.00
8:59 am 08:59 Mostly Cloudy 71 21.7 64 17.8 79 79 WNW 8 13 30.10 1019 10 16 0.00 0.00
9:59 am 09:59 Mostly Cloudy 74 23.3 61 16.1 64 64 NW 7 11 30.11 1020 10 16 0.00 0.00
10:59 am 10:59 Mostly Cloudy 77 25 62 16.7 60 60 VRB 6 9 30.10 1019 10 16 0.00 0.00
11:59 am 11:59 Mostly Cloudy 76 24.4 60 15.6 58 58 NNW 7 11 30.09 1019 10 16 0.00 0.00
12:59 pm 12:59 Mostly Cloudy 79 26.1 59 15 50 50 VRB 6 9 30.07 1018 10 16 0.00 0.00
1:59 pm 13:59 Mostly Cloudy 79 26.1 58 14.4 49 49 undefined N/A 30.06 1018 10 16 0.00 0.00
2:59 pm 14:59 Mostly Cloudy 78 25.6 58 14.4 50 50 VRB 6 9 30.04 1017 10 16 0.00 0.00
3:59 pm 15:59 Partly Cloudy 80 26.7 58 14.4 47 47 NNE 7 11 30.02 1017 10 16 0.00 0.00
4:59 pm 16:59 Partly Cloudy 78 25.6 58 14.4 50 50 VRB 6 9 30.00 1016 10 16 0.00 0.00
5:59 pm 17:59 Partly Cloudy 77 25 58 14.4 52 52 E 5 7 29.99 1016 10 16 0.00 0.00
6:59 pm 18:59 Partly Cloudy 75 23.9 60 15.6 60 60 ESE 5 7 30.00 1016 10 16 0.00 0.00
7:59 pm 19:59 Partly Cloudy 70 21.1 60 15.6 71 71 SE 5 7 30.01 1016 10 16 0.00 0.00
8:59 pm 20:59 Clear 71 21.7 61 16.1 71 71 SE 3 6 30.02 1017 10 16 0.00 0.00
9:59 pm 21:59 Clear 69 20.6 61 16.1 76 76 SSE 5 7 30.03 1017 10 16 0.00 0.00
10:59 pm 22:59 Clear 68 20 60 15.6 76 76 SSE 6 9 30.01 1016 10 16 0.00 0.00
11:59 pm 23:59 Partly Cloudy 68 20 61 16.1 78 78 S 6 9 30.00 1016 10 16 0.00 0.00

Powered by AerisWeather